Location: Central Falls
(41.8900°N, 71.3929°W)
Time: 11:54:04
(UTC+00:00)

A-11 Canister half - Pass Details

Date: 05 December 2023
Orbit: 1526 x 1682 km, 47.3° (Epoch: 20 February)

Event Time Altitude Azimuth Distance (km) Brightness Sun altitude
Rises 08:45:16 0° 285° (WNW) 4,838 - -35.0°
Reaches altitude 10° 08:52:22 10° 250° (WSW) 3,798 - -33.7°
Maximum altitude 08:53:58 11° 240° (WSW) 3,746 - -33.4°
Drops below altitude 10° 08:55:32 10° 230° (SW) 3,774 - -33.1°
Exits shadow 09:00:58 - 201° (SSW) 4,408 11.2 -32.1°
Sets 09:02:32 0° 195° (SSW) 4,709 11.4 -31.8°
